Regional Weather Roundup
Issued by NWS

Home | Current Version | Previous Version | Graphics & Text | Print | Product List | Glossary On
Versions: 1 2 3 4 5 6 7 8 9 10 11 12 13 14 15 16 17 18 19 20 21 22 23 24 25 26 27 28 29 30 31 32 33 34 35 36 37 38 39 40 41 42 43 44 45 46 47 48 49 50
809
ASUS43 KDTX 071410
RWRMI
MICHIGAN HOURLY REGIONAL WEATHER ROUNDUP
NATIONAL WEATHER SERVICE DETROIT/PONTIAC MI
900 AM EST SUN FEB 07 2016

NOTE: "FAIR" INDICATES FEW OR NO CLOUDS BELOW 12,000 FEET WITH NO
SIGNIFICANT WEATHER AND/OR OBSTRUCTION TO VISIBILITY.

MIZ047>049-052>055-059>063-066>070-074>076-081>083-071500-
SOUTHEAST LOWER MICHIGAN

CITY           SKY/WX    TMP DP  RH WIND       PRES   REMARKS
ADRIAN         CLOUDY    32  27  81 SW8       29.95F WCI  25
ALMA           CLOUDY    35  31  86 S8        29.86F WCI  28
ANN ARBOR      CLOUDY    31  26  82 S6        29.93F WCI  25
BAD AXE        PTSUNNY   34  29  81 S9        29.90F WCI  27
CARO           PTSUNNY   34  28  79 S5        29.89F WCI  30
DETROIT CITY   MOSUNNY   35  26  69 S7        29.96F WCI  29
DETROIT        CLOUDY    33  26  75 S7        29.96F WCI  27
FLINT          CLOUDY    36  27  69 S8        29.90F WCI  30
GROSSE ILE     CLOUDY    36  30  80 S9        29.95F WCI  29
HILLSDALE      MOSUNNY   32  26  80 S8        29.91F WCI  24
HOWELL         CLOUDY    33  28  81 S5        29.90F WCI  28

CITY           SKY/WX    TMP DP  RH WIND       PRES   REMARKS
JACKSON        CLOUDY    34  25  69 S6        29.90F WCI  29
LAMBERTVILLE   MOSUNNY   33  27  76 S6        29.96F WCI  28
LANSING        CLOUDY    35  27  72 S8        29.89F WCI  29
LAPEER         FAIR      33  28  83 S5        29.91F WCI  28
MASON          CLOUDY    34  28  80 S6        29.89F WCI  29
MONROE         MOSUNNY   34  27  77 S6        29.95F WCI  28
MT. CLEMENS    PTSUNNY   33  30  86 S6        29.93F WCI  28
PONTIAC        CLOUDY    31  26  82 S5        29.91F WCI  26
PORT HOPE        N/A     34  27  75 VRB7      29.88F WCI  28
PORT HURON     SUNNY     32  28  86 S7        29.96F WCI  26
TRI CITIES     CLOUDY    36  28  73 S9        29.88F WCI  29
MIDLAND        CLOUDY    34  28  78 S7        29.86F WCI  28
TROY           MOSUNNY   33  26  76 S5        29.95F WCI  29
SAGINAW HB     CLOUDY    36  32  87 S7        29.87F WCI  30
$$
MIZ043>046-050>051-056>058-064>065-071>073-077>080-071500-
SOUTHWEST LOWER MICHIGAN

CITY           SKY/WX    TMP DP  RH WIND       PRES   REMARKS
BATTLE CREEK   CLOUDY    35  27  72 S13       29.89F WCI  26
BENTON HARBOR  CLOUDY    38  29  70 S14       29.86F WCI  30
BIG RAPIDS     CLOUDY    34  31  88 SE7       29.79F WCI  28
COLDWATER      CLOUDY    36  28  73 S6        29.91F WCI  31
FREMONT        MOCLDY    35  31  87 S5        29.80F WCI  31
HOLLAND        CLOUDY    37  29  72 S12       29.84F WCI  29
GRAND RAPIDS   PTSUNNY   36  29  75 S9        29.85F WCI  29
IONIA          CLOUDY    34  29  81 S9        29.85F WCI  27
KALAMAZOO      MOSUNNY   35  27  72 S10       29.89F WCI  27
LUDINGTON      CLOUDY    38  32  78 S16G23    29.75F WCI  29
MARSHALL       CLOUDY    35  27  74 S5        29.89F WCI  31
MOUNT PLEASANT CLOUDY    35  29  79 S8        29.84F WCI  28
MUSKEGON       CLOUDY    39  30  70 S17G28    29.81F WCI  30
SOUTH HAVEN    MOSUNNY   38  29  69 S13       29.85F WCI  31
$$
MIZ016>042-071500-
NORTHERN LOWER MICHIGAN

CITY           SKY/WX    TMP DP  RH WIND       PRES   REMARKS
ALPENA         CLOUDY    32  27  81 S13       29.84F WCI  22
BEAVER ISLAND  CLOUDY    36  32  85 S9        29.72F WCI  29
BELLAIRE       CLOUDY    37  31  79 S10G16    29.76F WCI  29
CADILLAC       CLOUDY    33  30  88 S9        29.74F WCI  25
CHARLEVOIX     CLOUDY    36  31  81 S8        29.76F WCI  30
FRANKFORT      CLOUDY    37  32  79 S9        29.73F WCI  31
GAYLORD        CLOUDY    32  29  88 S12       29.76F FOG     WCI  23
GRAYLING       CLOUDY    32  28  86 S10       29.79F FOG     WCI  23
HARBOR SPRINGS CLOUDY    35  29  80 S5        29.75F WCI  31
HOUGHTON LAKE  CLOUDY    31  27  85 S10       29.80F WCI  22
MANISTEE       CLOUDY    37  30  75 S8        29.75F WCI  31
OSCODA         CLOUDY    33  29  83 S10       29.87F WCI  25
PELLSTON       CLOUDY    31  27  85 SE8       29.75F WCI  23
ROGERS CITY    CLOUDY    31  27  86 S9        29.82F FOG     WCI  23
TRAVERSE CITY  CLOUDY    39  30  70 VRB5      29.74F
$$
MIZ007>008-015-071500-
EASTERN UPPER MICHIGAN

CITY           SKY/WX    TMP DP  RH WIND       PRES   REMARKS
KINROSS        CLOUDY    30  28  93 SE16      29.75F WCI  19
MACKINAC ISLAN CLOUDY    31  28  86 SE10G21   29.75F WCI  23
NEWBERRY       CLOUDY    33  32  97 S10       29.68F FOG     WCI  24
S. S. MARIE    CLOUDY    31  27  85 SE10      29.76F WCI  22
MUNISING         N/A     33  30  88 S13G21    29.61F WCI  24
$$
MIZ004>006-011>014-085-071500-
CENTRAL UPPER MICHIGAN

CITY           SKY/WX    TMP DP  RH WIND       PRES   REMARKS
MANISTIQUE     LGT RAIN  35  33  92 SW14G21   29.67F WCI  26
ESCANABA       CLOUDY    34  30  86 S9        29.65F WCI  26
MENOMINEE      CLOUDY    36  28  75 SW10      29.65F WCI  28
SAWYER-GWINN   CLOUDY    27  27 100 S12       29.58F FOG     WCI  16
$$
MIZ001>003-009>011-084-071500-
WESTERN UPPER MICHIGAN

CITY           SKY/WX    TMP DP  RH WIND       PRES   REMARKS
IRON MOUNTAIN  SNOW      29  26  89 S6        29.58F VSB 1/2 WCI  23
HOUGHTON       LGT SNOW  30  28  92 SE5       29.52F VSB 1   WCI  25
COPPER HARBOR    N/A     32  31  96 SW8       29.55F WCI  25
IRONWOOD       CLOUDY    32  28  86 SW7       29.48F WCI  26
$$

ABBREVIATIONS USED IN REMARKS
   TC - TEMPERATURE IN CELSIUS
  WCI - WIND CHILL INDEX
   HX - HEAT INDEX
  VSB - VISIBILITY





USA.gov is the U.S. government's official web portal to all federal, state and local government web resources and services.